Lapse_Rate
5.9 5.8 5.8 5.8 5.9 6.0 6.0 6.0 6.0 6.0 6.0 6.1 6.1 6.1 6.1 6.2 6.2 6.2 6.2 6.4 6.4 6.4 6.2 6.4 6.6 6.4 6.3 6.3 6.5 6.3 6.3 6.4 6.4 6.2 6.1 6.0 6.1 6.1 5.8 5.8 5.6 5.6 5.5
5.7 5.6 5.6 5.6 5.7 5.8 5.9 6.0 6.1 6.1 6.1 6.1 6.0 6.0 6.0 5.9 5.9 6.0 6.0 6.1 6.3 6.3 6.3 6.3 6.3 6.4 6.2 6.4 6.3 6.4 6.4 6.3 6.3 6.3 6.2 6.2 6.2 6.2 6.3 5.8 5.7 5.7 5.5
5.9 5.8 5.8 5.9 6.0 5.9 6.0 6.0 6.0 5.9 6.0 5.9 5.9 5.9 5.8 5.8 5.9 6.0 6.0 6.0 6.2 6.3 6.3 6.3 6.4 6.3 6.3 6.2 6.4 6.4 6.4 6.4 6.3 6.3 6.2 6.3 6.3 6.3 6.4 6.2 6.0 5.7 5.6
6.2 6.2 6.2 6.3 6.3 6.3 6.1 6.1 6.0 5.9 5.9 5.9 5.9 5.7 5.7 5.7 5.8 5.9 6.1 6.1 6.2 6.3 6.3 6.2 6.4 6.4 6.3 6.2 6.3 6.4 6.3 6.4 6.3 6.3 6.2 6.3 6.4 6.4 6.3 6.3 6.0 5.8 5.6
6.7 6.7 6.7 6.7 6.4 6.2 6.1 6.0 6.0 6.0 6.0 6.0 6.0 5.8 5.8 5.8 5.9 5.9 6.1 6.3 6.3 6.3 6.4 6.4 6.3 6.4 6.3 6.3 6.2 6.4 6.4 6.4 6.4 6.3 6.2 6.2 6.5 6.4 6.2 6.4 6.2 5.8 5.7
6.4 6.2 6.2 6.1 5.9 5.8 5.7 5.7 5.7 5.7 5.8 5.9 6.0 6.1 6.0 6.0 6.2 6.3 6.5 6.4 6.5 6.5 6.5 6.6 6.6 6.5 6.5 6.4 6.3 6.3 6.4 6.3 6.2 6.3 6.2 6.2 6.3 6.4 6.2 6.1 6.3 6.1 5.7
6.0 6.1 5.9 5.7 5.5 5.5 5.5 5.5 5.6 5.9 5.9 6.0 6.1 6.1 6.2 6.3 6.4 6.5 6.5 6.4 6.4 6.5 6.5 6.6 6.8 6.7 6.7 6.6 6.5 6.4 6.3 6.5 6.3 6.2 6.2 6.2 6.3 6.3 6.4 6.0 6.3 6.3 5.9
6.5 6.3 5.9 5.5 5.5 5.5 5.6 5.7 5.7 5.8 5.8 5.9 6.0 6.2 6.4 6.6 6.5 6.2 6.2 6.1 6.4 6.3 6.4 6.4 6.5 6.8 6.8 6.8 6.7 6.7 6.5 6.6 6.6 6.3 6.1 6.2 6.5 6.5 6.5 6.2 6.0 6.1 6.0
6.3 6.0 5.5 5.4 5.5 5.6 5.7 5.7 5.8 5.8 5.9 6.0 6.1 6.1 6.2 6.6 6.7 6.0 5.5 5.6 5.9 6.0 6.3 6.3 6.4 6.8 6.9 6.9 6.8 6.6 6.6 6.5 6.7 6.6 6.4 6.2 6.5 6.6 6.5 6.5 5.9 5.9 6.0
5.8 5.7 5.5 5.4 5.6 5.7 5.7 5.8 5.9 5.9 5.9 6.1 5.9 5.7 5.9 6.0 6.7 6.8 5.5 5.4 5.5 6.0 6.3 6.3 6.3 6.5 6.7 7.1 7.0 6.9 6.6 6.6 6.6 6.4 6.4 6.4 6.6 6.6 6.5 6.3 5.8 5.7 5.8
5.7 5.5 5.5 5.6 5.7 5.8 6.1 6.3 6.3 6.2 6.3 6.5 6.1 5.9 5.6 5.5 5.9 5.9 6.4 5.6 4.9 5.7 6.1 6.4 6.4 6.4 6.3 6.5 6.8 6.8 6.9 6.7 6.6 6.5 6.3 6.5 6.4 6.5 6.5 5.6 6.1 5.9 5.5
5.8 5.6 5.6 5.7 5.9 6.2 6.5 6.6 6.8 6.8 6.9 6.6 6.2 6.2 6.0 5.8 5.5 5.7 6.0 6.1 5.9 5.2 5.8 6.2 6.4 6.7 6.7 6.9 6.9 7.3 7.3 6.9 6.8 6.5 6.3 6.3 6.6 6.3 6.4 6.6 6.7 5.9 5.5
5.7 5.8 5.9 6.0 6.2 6.4 6.6 6.9 6.9 6.9 7.0 6.7 6.6 6.4 6.1 5.8 5.5 5.4 5.5 5.6 5.7 5.5 5.3 5.5 5.9 6.2 6.4 6.6 6.8 7.1 7.0 7.2 7.1 6.8 6.3 6.2 6.3 6.6 6.4 6.5 6.6 6.0 4.8
5.9 6.0 6.1 6.3 6.3 6.5 6.6 6.7 6.8 7.1 7.2 7.0 6.6 6.6 6.2 5.7 5.5 5.4 5.5 5.8 5.8 5.4 5.4 5.2 5.1 5.6 6.1 6.3 6.6 6.8 7.0 7.1 7.2 7.0 6.6 6.3 6.0 6.4 6.8 6.5 6.5 5.7 5.3
6.2 6.2 6.3 6.3 6.3 6.5 6.7 6.7 6.9 6.9 7.0 6.8 6.6 6.5 6.1 5.6 5.4 5.3 5.3 5.5 5.7 5.7 5.4 5.5 5.7 5.2 5.6 6.2 6.3 6.6 6.8 6.9 7.0 7.0 6.9 6.5 6.2 6.0 6.5 6.8 6.6 6.3 6.5
6.4 6.3 6.2 6.2 6.5 6.5 6.7 6.7 6.7 6.8 6.8 6.7 6.4 6.3 5.9 5.5 5.2 5.1 5.1 5.2 5.4 5.6 5.2 5.3 5.5 5.6 5.5 5.7 6.0 6.2 6.5 6.6 6.8 6.8 6.8 6.7 6.6 6.3 6.2 6.7 6.3 6.0 6.6
6.3 6.3 6.3 6.4 6.5 6.4 6.5 6.5 6.4 6.5 6.5 6.3 6.1 5.9 5.7 5.4 5.1 5.0 5.0 5.2 5.2 5.3 5.3 5.2 5.2 5.4 5.5 5.6 5.4 5.7 5.9 6.1 6.3 6.6 6.4 6.3 6.6 6.7 6.6 6.8 6.6 6.3 6.4
6.4 6.4 6.4 6.4 6.4 6.3 6.4 6.3 6.3 6.2 6.1 6.0 5.9 5.8 5.6 5.5 5.3 5.1 5.0 5.1 5.1 5.2 5.3 5.3 5.3 5.1 5.0 5.3 4.9 4.9 5.2 5.6 5.7 6.0 6.1 5.8 6.0 6.7 6.6 6.7 6.8 6.6 6.4
6.4 6.5 6.3 6.3 6.3 6.2 6.3 6.4 6.3 6.3 6.2 6.1 6.0 5.9 5.7 5.5 5.3 5.2 5.1 5.1 5.2 5.3 5.3 5.4 5.4 5.1 5.1 4.8 4.8 4.6 4.6 4.7 5.0 5.3 5.8 5.9 5.6 5.9 6.5 6.7 6.9 6.9 6.7
6.2 6.4 6.2 6.2 6.2 6.1 6.2 6.2 6.2 6.2 6.2 6.1 6.1 5.9 5.7 5.6 5.5 5.4 5.4 5.3 5.2 5.3 5.4 5.4 5.4 5.4 5.2 5.0 4.8 4.8 4.6 4.5 4.7 4.7 5.4 5.7 5.9 6.1 6.1 6.4 6.4 6.6 6.7
6.2 6.2 6.1 6.1 6.1 6.0 6.0 5.9 5.9 6.0 6.0 5.9 5.8 5.8 5.8 5.8 5.8 5.7 5.7 5.5 5.5 5.4 5.4 5.4 5.4 5.3 5.1 5.1 5.0 4.6 4.7 4.8 4.8 4.9 5.1 5.7 5.7 6.0 6.0 6.1 6.3 6.3 6.5
6.1 6.1 6.0 6.0 6.0 5.9 5.8 5.7 5.7 5.7 5.7 5.7 5.7 5.7 5.7 5.7 5.7 5.8 5.8 5.8 5.7 5.7 5.6 5.4 5.4 5.3 5.0 4.9 5.0 4.7 4.4 4.6 4.7 4.9 5.3 5.2 5.3 5.9 5.7 6.2 6.3 6.3 6.4
5.9 5.8 5.8 5.9 5.9 5.8 5.7 5.7 5.7 5.6 5.6 5.6 5.6 5.5 5.5 5.6 5.6 5.6 5.7 5.7 5.7 5.6 5.5 5.5 5.4 5.4 5.4 5.2 4.8 4.7 4.4 4.1 4.4 4.6 4.7 4.9 4.9 5.2 5.7 5.9 6.2 6.3 6.4
5.8 5.8 5.7 5.8 5.7 5.7 5.6 5.6 5.6 5.7 5.6 5.5 5.5 5.4 5.4 5.5 5.5 5.6 5.6 5.6 5.5 5.5 5.6 5.6 5.7 5.7 5.8 5.7 5.7 5.0 4.6 4.5 4.2 4.2 4.2 4.2 4.2 4.5 4.7 5.6 6.1 6.2 6.1
5.8 5.7 5.7 5.6 5.6 5.6 5.6 5.6 5.6 5.6 5.5 5.5 5.5 5.5 5.5 5.6 5.6 5.6 5.5 5.5 5.7 6.1 6.3 6.6 6.7 6.7 6.6 6.3 5.9 5.9 5.4 5.1 4.6 4.2 4.0 3.9 3.9 4.3 4.5 4.5 4.8 5.4 5.6
5.8 5.7 5.6 5.6 5.6 5.6 5.6 5.6 5.6 5.5 5.6 5.5 5.5 5.5 5.6 5.6 5.6 5.6 5.7 6.0 6.4 6.7 6.9 6.8 6.7 6.5 6.4 6.3 6.1 5.8 5.7 5.6 5.3 4.7 4.3 4.0 3.9 4.0 4.3 4.4 4.4 4.6 4.6
Wind_Speed
10 12 12 13 13 15 14 13 13 14 13 14 14 14 14 16 17 16 17 19 19 21 23 24 23 23 22 23 20 23 26 30 31 30 30 29 28 29 28 30 31 29 26
13 12 11 12 14 16 16 14 12 10 10 12 12 14 14 16 17 17 18 19 18 21 22 23 24 23 23 23 23 22 26 29 32 32 31 30 30 30 29 29 31 32 29
13 12 10 10 13 15 16 15 15 14 10 10 13 12 13 15 14 15 17 18 19 18 19 21 21 23 24 24 23 22 23 29 31 32 33 32 32 31 31 31 32 34 32
13 10 9 9 15 14 13 10 10 11 11 11 11 12 12 11 12 14 14 14 15 17 15 16 18 19 22 24 24 23 23 25 30 32 33 33 32 32 32 32 33 34 32
14 12 10 11 14 12 10 9 10 10 11 11 12 13 12 11 10 8 8 11 12 14 15 15 15 19 22 23 23 24 22 25 29 33 33 32 32 32 32 32 34 34 34
12 11 9 11 12 8 8 9 11 10 10 10 13 12 13 9 7 5 12 8 7 12 16 14 15 13 21 18 18 21 24 23 26 30 34 35 33 34 34 34 34 35 35
10 10 10 10 11 7 8 10 9 12 9 10 9 13 10 7 1 11 6 6 5 11 14 13 13 11 12 15 20 20 23 25 24 26 30 36 36 35 34 34 35 35 36
10 9 10 8 10 7 9 10 11 9 7 10 8 9 7 7 1 12 7 8 13 11 12 13 13 13 12 11 12 10 11 13 20 19 19 32 36 35 36 35 36 36 37
8 8 10 10 10 8 7 9 10 11 8 9 10 5 4 4 12 5 11 11 10 12 12 13 12 12 13 12 11 11 1 14 13 15 22 18 26 33 36 36 36 37 39
9 11 9 9 9 8 8 8 8 8 8 8 9 8 7 7 3 7 7 12 13 15 13 10 10 11 14 11 10 9 10 16 16 16 17 21 19 24 36 37 37 39 39
9 10 10 10 9 7 8 8 9 9 7 6 6 8 8 9 1 7 11 14 14 13 11 11 8 8 12 18 18 17 22 23 20 18 15 18 20 19 28 35 35 33 37
5 9 10 10 9 9 8 7 7 8 7 7 7 7 7 5 9 7 11 15 15 12 12 9 9 10 14 18 23 31 29 24 25 24 22 19 17 19 19 32 34 29 36
5 7 9 9 8 9 9 9 7 7 8 6 8 6 6 6 7 7 9 12 13 13 8 6 10 9 13 19 19 32 27 25 31 28 25 22 17 17 19 21 29 29 36
5 8 7 7 8 9 9 9 5 6 7 7 9 8 5 6 7 8 8 11 11 10 11 9 12 12 15 18 22 30 18 25 31 31 28 21 21 18 17 17 26 30 33
4 5 6 7 9 10 10 8 6 8 7 8 8 10 8 7 7 8 7 8 8 10 12 12 12 16 14 18 21 22 15 21 32 31 31 29 17 19 15 13 15 25 29
4 4 6 8 9 10 10 9 8 9 9 8 8 11 10 9 8 8 8 8 7 7 7 13 12 14 13 15 21 21 16 17 27 32 32 31 30 16 13 12 15 16 22
4 5 6 8 9 9 11 9 9 10 10 10 11 11 12 13 9 9 9 8 8 8 9 12 10 14 15 14 14 18 15 14 16 31 33 33 32 30 28 18 13 17 20
5 5 6 7 8 8 10 10 9 10 10 10 11 12 12 10 12 12 10 13 11 10 10 14 13 11 15 14 12 12 10 16 14 26 29 32 33 33 32 29 26 17 9
5 7 7 7 8 8 8 8 9 9 9 10 9 11 12 12 11 10 10 11 11 10 9 9 10 10 11 13 13 11 9 11 15 23 26 30 32 35 33 33 30 26 22
6 6 7 6 6 7 8 7 8 9 9 9 9 10 12 12 12 13 10 12 12 11 11 10 10 11 12 14 10 11 9 7 9 13 21 26 28 31 36 36 35 30 27
5 6 6 5 7 7 7 6 6 8 9 9 10 10 11 14 14 14 9 11 13 11 10 11 11 12 12 15 13 10 10 5 8 9 9 11 10 11 21 31 33 34 31
6 5 6 5 6 5 8 8 6 6 8 9 9 9 10 16 12 12 13 14 15 13 12 11 10 12 14 14 12 11 9 8 5 11 7 8 9 11 11 22 33 36 35
6 6 5 5 5 6 5 6 3 5 7 8 9 9 9 10 15 9 10 11 13 17 13 11 12 12 13 15 14 12 13 8 7 9 9 6 8 8 10 17 31 35 36
5 5 4 3 4 6 7 3 6 6 6 8 10 11 11 13 14 13 9 9 10 10 11 8 11 11 12 15 14 10 11 8 4 9 13 5 7 5 7 13 30 32 35
5 4 4 3 3 6 5 6 9 4 5 7 8 13 12 12 18 19 11 11 10 10 13 14 15 17 18 23 24 11 12 10 5 6 12 6 8 8 3 7 16 27 28
5 4 4 4 3 5 8 7 8 3 4 4 6 7 16 14 17 18 12 11 10 11 11 11 11 15 18 20 23 17 11 10 10 5 11 8 10 8 4 4 9 17 19
Wind_Direction
8 2 2 358 354 349 348 340 337 332 328 325 321 314 309 302 295 289 285 286 285 282 282 283 276 275 276 272 265 238 224 214 211 209 206 205 203 200 197 198 193 196 202
7 360 359 357 353 346 342 336 338 331 326 322 317 314 305 297 292 290 285 284 280 276 276 276 276 272 270 276 274 257 231 219 214 212 208 205 203 201 199 199 193 192 194
7 357 0 357 353 341 338 340 335 332 326 326 319 315 306 297 293 290 289 288 288 274 259 267 272 271 268 266 276 273 250 227 217 213 212 206 204 201 200 198 196 194 193
10 360 2 358 349 343 344 344 340 332 331 326 322 315 308 302 299 293 286 290 292 292 287 261 263 271 272 267 263 271 262 244 224 217 214 209 206 203 201 200 194 193 191
8 1 3 356 348 347 350 344 341 336 330 328 322 314 306 300 297 298 303 307 295 309 301 287 264 258 262 264 263 265 271 255 239 224 217 212 206 203 199 200 197 193 192
7 359 359 357 349 346 350 347 340 339 326 333 320 310 311 289 285 317 316 299 320 318 302 309 300 283 227 246 257 259 263 269 251 237 227 215 210 205 204 197 198 197 194
9 7 359 355 350 350 348 350 345 342 338 349 326 331 311 303 340 345 345 317 331 317 309 318 298 318 298 228 235 245 254 265 263 252 237 226 212 207 204 201 197 200 199
13 8 6 353 353 347 354 357 357 348 344 350 341 314 335 318 263 319 348 327 351 336 327 308 307 303 293 296 303 312 303 295 286 275 280 239 224 207 205 205 200 200 201
23 20 12 355 355 358 356 356 356 359 346 348 358 15 333 333 332 303 328 346 334 328 323 317 302 304 302 292 284 262 305 324 326 309 275 276 246 212 206 206 202 199 202
33 23 9 6 3 358 1 356 359 356 354 354 349 352 323 286 315 314 316 312 339 324 327 309 318 316 303 303 303 275 314 317 309 310 310 282 268 239 210 206 203 203 201
45 24 12 9 6 1 2 357 5 7 5 1 352 349 342 326 337 310 309 328 326 327 329 310 305 318 330 354 344 7 353 334 314 308 307 297 273 250 237 206 206 206 210
34 29 19 12 4 360 360 354 357 8 13 4 0 9 359 357 330 328 312 318 324 327 318 342 4 22 1 356 346 359 340 359 355 339 320 294 283 274 260 227 202 206 218
32 28 19 13 8 4 1 356 1 359 4 3 6 5 360 354 339 326 316 321 322 315 337 351 360 8 1 357 344 346 334 10 358 350 328 306 285 264 259 254 220 196 211
41 27 18 16 12 11 5 6 8 5 2 3 3 6 2 357 349 338 334 330 330 330 351 5 355 359 350 342 336 339 335 12 4 360 350 313 285 261 253 253 221 214 218
45 25 23 21 23 21 13 3 16 8 4 11 4 7 4 0 354 348 341 339 334 330 331 347 347 341 351 345 335 336 353 16 15 10 8 3 303 269 248 243 213 209 205
48 38 36 32 32 26 20 16 21 16 14 20 7 9 10 2 354 355 351 347 341 331 311 336 337 345 351 344 341 334 358 15 18 17 18 17 16 347 280 242 224 212 190
62 54 49 48 36 27 26 25 25 20 20 19 15 15 12 4 357 358 348 353 348 338 328 330 338 347 349 346 339 344 357 20 17 18 20 22 24 25 26 13 253 217 213
75 63 58 55 50 31 33 28 20 29 20 21 14 16 15 4 4 3 351 352 355 336 340 339 348 353 351 358 339 348 14 17 20 22 22 23 27 28 30 25 23 14 252
69 66 63 59 52 44 41 36 25 32 31 23 22 19 16 8 7 2 3 355 353 340 352 343 351 359 359 356 353 350 13 24 22 20 25 23 27 30 31 29 27 26 19
88 83 74 62 61 47 41 34 35 31 37 35 30 29 22 18 9 4 3 3 357 349 357 356 1 359 4 356 345 354 358 38 28 14 23 23 23 27 33 28 28 29 30
102 91 84 73 67 61 44 34 39 39 38 37 37 28 30 23 20 20 7 7 5 3 5 0 6 3 3 357 354 335 350 338 48 21 26 24 22 13 28 25 23 24 31
124 110 96 80 79 72 55 51 33 42 42 37 33 34 31 25 17 18 24 21 19 14 12 7 9 5 1 356 346 337 352 4 6 18 349 25 20 24 21 27 22 24 30
133 129 130 131 102 84 60 53 46 60 45 35 40 31 31 30 17 7 28 26 27 24 20 10 10 10 1 357 346 347 347 15 31 11 344 27 13 36 23 19 28 23 27
142 127 116 103 90 74 56 45 295 59 56 50 37 29 32 29 21 0 15 28 29 25 20 17 17 12 7 2 358 348 335 313 90 39 10 357 4 2 32 20 24 26 20
131 119 125 87 88 73 74 17 306 62 67 47 44 41 21 30 20 7 16 19 18 20 13 15 15 17 14 14 14 9 10 11 4 34 20 332 357 333 45 34 23 19 19
144 133 121 106 32 69 82 44 343 54 56 42 50 35 46 16 23 20 20 15 14 4 4 6 14 16 15 17 19 25 11 15 4 14 10 344 3 351 337 64 38 9 16